User: anonymous   Login
Location: Lussas
(44.6119°N, 4.4726°E)
Time: 12:55:55
(UTC+00:00)
Language:

BREEZE-M DEB (TANK) - Orbit

View from above orbital plane
View from above orbital plane
View from above satellite
View from above satellite

Ground track
Ground track

The orbit data is extracted from the following two-line orbital elements,

1 29271U 06032C   21061.24619666  .00001170  00000-0  27562-3 0  9996
2 29271  49.5333   2.8780 5303664  67.5505 339.1304  5.11093373265176
Epoch (UTC): 02 March 2021 05:54:31
Eccentricity: 0.5303664
inclination: 49.5333°
perigee height: 308 km
apogee height: 15409 km
right ascension of ascending node: 2.8780°
argument of perigee: 67.5505°
revolutions per day: 5.11093373
mean anomaly at epoch: 339.1304°
orbit number at epoch: 26517

The dashed part of the orbit path shows where the satellite is in the earth's shadow,  

DLR